Location: Hamburg
(53.5500°N, 10.0000°E)
Time: 07:36:10
(UTC+01:00)

Daily predictions for brighter satellites

Satellite Brightness Start Highest point End
(mag) Time Altitude Azimuth Time Altitude Azimuth Time Altitude Azimuth
Cosmos 1844 Rocket 3.5 16:44:38 10° SSE 16:49:35 33° ESE 16:54:33 10° NE
ERBS 3.2 16:47:59 10° WNW 16:51:19 53° SSW 16:54:38 10° SE
COSMOS 2441 4.4 16:47:33 10° SSE 16:52:24 68° ENE 16:57:18 10° N
GENESIS II 4.2 16:50:39 10° NW 16:54:38 89° ENE 16:58:32 10° SE
Cosmos 1814 Rocket 4.2 16:50:15 10° NNW 16:55:31 54° ENE 17:00:46 10° SE
SMAP 3.4 16:52:06 10° SE 16:56:30 43° ENE 17:00:55 10° N
Cosmos 1825 3.3 16:54:00 10° NNW 16:57:41 48° W 17:01:20 10° S
Cosmos 1733 Rocket 3.3 16:56:00 10° N 17:00:20 49° ENE 17:04:39 10° SSE
Cosmos 1340 3.5 16:57:49 10° SSE 17:01:08 30° E 17:04:29 10° NNE
Cosmos 1455 3.7 16:58:44 10° SW 17:02:15 37° WNW 17:05:47 10° N
NOSS 3-2 (C) 3.6 16:59:13 10° SW 17:05:18 75° SE 17:12:11 10° NE
CZ-2C R/B 2.8 17:00:31 10° S 17:05:32 76° WSW 17:10:44 10° NNW
AQUARIUS 4.3 17:02:55 10° SE 17:07:16 50° ENE 17:11:39 10° N
Cosmos 1725 Rocket 4.3 17:02:08 10° SSE 17:08:05 47° E 17:14:03 10° NNE
COSMOS 2455 3.8 17:03:16 10° SSE 17:08:15 28° ESE 17:13:16 10° NE
Cosmos 2242 Rocket 4.2 17:04:52 10° SSE 17:09:04 38° E 17:13:15 10° NNE
CSL-04 Debris 4.2 17:03:56 10° SSE 17:09:18 66° ENE 17:14:41 10° NNW
Aureole 3 3.7 17:05:11 10° N 17:09:21 75° ENE 17:14:42 10° SSE
Cosmos 1833 Rocket 3.2 17:05:47 10° NNW 17:11:03 39° NE 17:16:18 10° ESE
Cosmos 220 Rocket 4.3 17:08:41 10° SSW 17:13:07 70° WNW 17:17:33 10° NNE
Cosmos 540 Rocket 4.1 17:09:59 10° NNW 17:14:43 34° NE 17:19:24 10° ESE
NOSS 3-2 (A) 3.7 17:08:40 10° SW 17:14:50 84° NW 17:21:50 10° NE
ERS-2 3.0 17:12:22 10° ESE 17:15:33 28° ENE 17:18:45 10° N
Ariane Rocket 3.0 17:12:16 10° SSE 17:17:20 73° ENE 17:22:26 10° NNW
Cosmos 1850 Rocket 4.0 17:12:12 10° SSW 17:17:21 71° ESE 17:22:32 10° NNE
Cosmos 1862 Rocket 4.2 17:13:22 10° SSE 17:17:23 35° E 17:21:29 10° NNE
Tsikada Rocket 3.9 17:11:13 10° N 17:17:24 73° ENE 17:23:33 10° SSE
Cosmos 1844 4.3 17:12:25 10° S 17:17:46 41° ESE 17:23:11 10° NE
Cosmos 841 Rocket 3.6 17:13:41 10° NNW 17:18:55 57° ENE 17:24:06 10° SE
Cosmos 1869 4.0 17:16:07 10° SSW 17:19:59 54° WNW 17:23:54 10° N
Cosmos 2061 Rocket 4.1 17:13:46 10° S 17:20:05 87° E 17:26:32 10° NNE
Cosmos 2227 Rocket 4.2 17:18:02 10° NW 17:21:23 16° NNW 17:24:43 10° NNE
USA 161 0.5 17:20:43 10° N 17:22:33 74° WNW 17:24:28 10° SSW
Cosmos 2278 Rocket 3.3 17:19:01 10° SSE 17:23:30 25° ESE 17:27:24 12° NE
Cosmos 2263 Rocket 3.0 17:19:50 10° SW 17:25:18 49° NW 17:30:46 10° NNE
IDEFIX/ARIANE 42P 4.0 17:21:33 10° SSW 17:26:30 42° W 17:31:27 10° NNW
Cosmos 2016 Rocket 4.0 17:23:07 10° S 17:29:27 84° E 17:35:44 10° NNE
SL-27 R/B 2.7 17:26:41 10° NNW 17:29:53 40° ENE 17:33:03 10° SE
COSMOS 2487 4.4 17:28:14 10° NNE 17:29:50 13° NE 17:29:50 13° NE
Lacrosse 5 1.9 17:25:49 10° WSW 17:30:54 88° SSE 17:35:01 16° ENE
Cosmos 2346 Rocket 4.4 17:24:49 10° N 17:30:56 68° ENE 17:37:04 10° SSE
Cosmos 1741 Rocket 4.0 17:27:23 10° SSW 17:32:43 87° ESE 17:38:06 10° NNE
CENTAUR R/B 2.8 17:27:06 10° SSW 17:33:08 55° SE 17:39:17 13° NE
Cosmos 44 Rocket 3.6 17:28:53 10° NW 17:33:31 45° NE 17:38:05 11° ESE
Meteor 2-12 Rocket 4.5 17:28:20 10° S 17:34:17 61° E 17:40:16 10° NNE
CORIOLIS 4.1 17:29:31 10° SSE 17:34:58 79° ENE 17:40:27 10° NNW
DNEPR-1 R/B 3.4 17:32:36 10° SW 17:36:54 80° SE 17:40:18 16° NE
Okean 1-7 4.4 17:34:51 10° SE 17:37:51 18° E 17:38:30 18° ENE
Cosmos 1346 2.7 17:38:13 10° SSW 17:40:28 63° WNW 17:42:34 11° N
Cosmos 1782 Rocket 4.0 17:37:59 10° N 17:42:02 36° ENE 17:46:04 10° SE
Cosmos 1346 Rocket 4.4 17:38:47 10° SW 17:42:21 33° WNW 17:45:59 10° N
Cosmos 1633 3.1 17:40:46 10° N 17:44:12 36° ENE 17:47:37 10° SE
Cosmos 304 Rocket 3.9 17:40:16 10° NNW 17:45:07 79° WSW 17:49:55 10° SSE
SPOT 3 Rocket 3.8 17:40:56 10° SE 17:45:55 47° ENE 17:50:55 10° N
CZ-4 R/B 1.2 17:42:51 10° SSE 17:46:43 88° E 17:50:35 10° NNW
COSMO-SKYMED 1 3.5 17:44:53 17° NE 17:47:17 26° E 17:50:58 10° SSE
Cosmos 292 Rocket 4.3 17:43:30 10° NNW 17:47:56 36° NE 17:51:57 12° ESE
CZ-2C R/B 4.0 17:44:59 10° NNE 17:49:17 45° E 17:53:37 10° S
Cosmos 1933 3.5 17:47:40 10° SSW 17:51:43 77° WNW 17:55:46 10° N
Meteor 1-25 Rocket 4.2 17:46:32 10° NNW 17:52:26 77° ENE 17:58:15 10° SSE
USA 116 4.3 17:48:23 10° NNE 17:53:02 48° E 17:57:08 10° S
Cosmos 2297 Rocket 4.3 17:50:23 10° NW 17:53:21 14° N 17:56:20 10° NNE
YAOGAN 1 2.5 17:50:35 10° SSE 17:54:54 79° ENE 17:59:16 10° NNW
Meteor 1-20 Rocket 4.1 17:49:41 10° N 17:55:20 74° ENE 18:00:50 10° SSE
Cosmos 2082 Rocket 2.2 17:50:53 10° NNW 17:56:37 67° NE 18:02:16 10° SE
NOAA 12 4.2 17:54:18 10° SE 17:59:26 52° ENE 18:04:35 10° N
ATLAS CENTAUR R/B 3.2 17:57:25 10° NW 17:59:43 15° N 18:01:02 13° NNE
Meteor 1-28 Rocket 3.1 17:57:16 11° NNE 18:00:46 62° ESE 18:04:26 10° S
Cosmos 1464 Rocket 4.4 17:57:04 10° SSE 18:02:32 36° E 18:08:04 10° NNE
Cosmos 2221 Rocket 4.3 18:02:13 10° SSE 18:06:00 29° E 18:06:08 29° E
Cosmos 1484 Rocket 4.1 18:03:36 10° S 18:07:18 43° W 18:11:07 10° NNW
Cosmos 44 3.1 18:03:09 10° NW 18:07:44 72° NE 18:11:17 18° SE
EO 1 Del DPAF 3.7 18:09:31 35° E 18:10:00 37° E 18:13:33 10° SSE
Meteor 2-10 Rocket 4.4 18:04:55 10° SSW 18:10:04 53° WNW 18:15:30 10° N
Cosmos 1606 3.1 18:07:57 10° SSE 18:11:27 37° E 18:11:32 37° E
Landsat 4 3.7 18:09:16 23° NNE 18:11:28 57° ESE 18:15:12 10° S
METEOR-M 4.1 18:10:26 10° SSE 18:15:47 85° WSW 18:21:11 10° NNW
Cosmos 1703 Rocket 3.7 18:12:21 10° S 18:16:42 52° E 18:19:40 19° NNE
Cosmos 2233 Rocket 3.9 18:11:55 10° S 18:18:12 88° E 18:24:27 10° N
ATLAS 3B R/B 3.5 18:11:53 10° W 18:18:35 42° NNW 18:22:58 20° NE
Okean 2 Rocket 3.1 18:15:54 10° N 18:20:23 55° ENE 18:24:50 10° SSE
Cosmos 1437 3.3 18:17:24 10° SSW 18:20:31 55° WNW 18:22:40 18° N
USA 238 DEB 4.5 18:13:55 10° W 18:20:32 44° NNW 18:25:00 21° NE
USA 238 4.5 18:13:59 10° W 18:20:38 44° NNW 18:25:06 21° NE
MONITOR-E 4.1 18:18:53 10° SSE 18:21:56 82° WSW 18:25:01 10° NNW
ALOS 2.1 18:19:31 10° SSE 18:24:11 76° ENE 18:28:53 10° NNW
Cosmos 1782 2.9 18:21:42 10° S 18:25:37 53° E 18:26:14 47° ENE
Cosmos 1602 3.8 18:23:06 10° N 18:26:34 50° NE 18:26:34 50° NE
Meteor 1-10 Rocket 4.4 18:23:18 10° SSE 18:28:45 49° E 18:34:12 11° NNE
CZ-4C R/B 2.7 18:22:46 10° NW 18:29:30 75° NE 18:34:40 23° ESE
USA 234 3.9 18:30:25 29° ESE 18:32:18 35° SE 18:38:09 10° SSW
Cosmos 1844 Rocket 3.2 18:27:41 10° SW 18:33:15 58° NW 18:37:34 17° NNE
H-2A R/B 4.3 18:36:00 24° N 18:36:00 24° N 18:37:41 10° N
Envisat 4.4 18:35:46 22° NNE 18:35:46 22° NNE 18:38:15 10° N
SKYMED 2 3.4 18:33:28 30° NNE 18:35:36 70° ESE 18:39:56 10° S
Cosmos 1513 Rocket 4.4 18:39:51 10° S 18:46:02 62° E 18:52:09 10° NNE
Cosmos 405 4.4 18:43:14 10° NNW 18:45:07 29° N 18:45:07 29° N
ERS-2 3.9 18:45:49 10° SSW 18:49:10 32° W 18:52:33 10° NNW
Cosmos 1503 Rocket 4.1 18:46:12 10° S 18:51:14 53° ESE 18:51:14 53° ESE
Meteor 1-11 Rocket 3.7 18:46:01 10° NNW 18:51:59 78° ENE 18:57:47 10° SSE
Resurs 01 Rocket 3.9 18:56:10 13° N 18:56:10 13° N 18:56:49 10° N
FENGYUN 3A 3.9 18:47:30 10° S 18:52:54 70° WSW 18:58:20 10° NNW
COSMOS 2455 2.9 18:47:39 10° SW 18:53:41 77° NW 18:56:32 33° NNE
Cosmos 1833 Rocket 3.4 18:49:44 10° NW 18:55:13 54° WSW 19:00:40 10° S
Cosmos 540 Rocket 4.3 18:51:32 10° NNW 18:56:34 51° WSW 19:01:33 10° S
NOSS 3-2 (C) 4.3 18:50:36 10° W 18:56:44 47° NNW 19:00:04 28° NE
DMSP B5D1-3 4.4 18:55:44 48° NE 18:57:04 69° ESE 19:02:12 10° S
Timation 1 Rocket 4.4 18:51:41 10° SW 18:57:42 76° NW 19:00:47 31° NNE
Cosmos 1891 Rocket 4.3 18:52:16 10° S 18:58:23 72° E 19:04:26 10° NNE
Cosmos 2297 3.8 18:55:24 10° S 19:00:38 53° SE 19:00:38 53° SE
NOSS 3-2 (A) 4.5 19:00:28 10° W 19:06:35 42° NNW 19:09:21 30° NNE
Cosmos 2278 Rocket 2.3 19:01:22 10° SW 19:07:03 75° NW 19:09:16 39° NNE
Cosmos 2227 Rocket 4.2 19:04:53 10° NNW 19:07:58 14° NNE 19:08:06 14° NNE
Nadezhda 4 Rocket 3.8 19:04:17 10° N 19:10:28 87° E 19:16:36 10° S
Cosmos 2263 Rocket 4.3 19:06:46 10° WNW 19:10:37 18° NNW 19:13:32 13° N
Timation 2 Rocket 4.1 19:04:14 10° NW 19:11:10 87° SW 19:14:07 36° SSE
Cosmos 1486 Rocket 4.3 19:07:45 10° SW 19:12:57 66° WNW 19:14:48 40° N
Lacrosse 5 2.1 19:09:10 10° W 19:14:11 58° N 19:14:13 58° N
Okean 1-7 3.4 19:10:37 10° SSW 19:14:58 63° WNW 19:15:27 59° NW
Cosmos 44 Rocket 4.2 19:10:29 10° NW 19:15:07 46° SW 19:16:51 32° S
Cosmos 2034 Rocket 3.9 19:12:11 10° S 19:18:33 85° E 19:24:57 10° NNE
COSMO-SKYMED 1 3.6 19:22:07 32° NNW 19:23:38 44° WNW 19:27:46 10° SW
CENTAUR R/B 3.1 19:17:29 10° WSW 19:23:54 57° NNW 19:26:28 39° NNE
Cosmos 1092 Rocket 3.8 19:20:03 10° N 19:26:14 82° E 19:26:54 72° SE
Cosmos 2285 Rocket 4.4 19:21:31 10° NNW 19:26:35 47° NNE 19:26:35 47° NNE
Cosmos 1354 Rocket 4.1 19:23:49 10° SSW 19:28:28 69° SW 19:28:28 69° SW
Cosmos 2297 Rocket 4.3 19:36:30 10° NNW 19:38:50 15° N 19:38:50 15° N
ATLAS CENTAUR R/B 4.1 19:37:03 10° NNW 19:37:17 11° NNW 19:37:17 11° NNW
Cosmos 2082 Rocket 4.1 19:35:32 10° NW 19:40:18 28° WSW 19:45:01 10° SSW
Meteor 1-27 Rocket 4.4 19:58:24 10° SSW 20:03:34 55° W 20:03:34 55° W
ATLAS 3B R/B 3.7 20:04:28 10° WNW 20:10:13 36° N 20:10:13 36° N
USA 234 3.8 20:17:47 51° SW 20:17:47 51° SW 20:22:30 10° WSW
CZ-4C R/B 3.9 20:11:29 10° NW 20:17:56 40° WSW 20:19:54 35° SSW
COSMOS 2455 4.5 20:35:18 10° W 20:39:42 29° NW 20:39:42 29° NW
Cosmos 2278 Rocket 4.3 20:47:35 10° W 20:51:08 23° NW 20:51:08 23° NW
CENTAUR R/B 4.2 21:09:31 10° WNW 21:13:39 31° NW 21:13:39 31° NW
